Location: Kitchener
(43.2612°N, 80.5078°W)
Time: 03:00:24
(UTC+02:00)

ISS - Visible Passes

Search period start: 21 October 2017 00:00
Search period end: 30 October 2017 23:00
Orbit: 401 x 408 km, 51.6° (Epoch: 21 October)

Date Brightness Start Highest point End Pass type
(mag) Time Alt. Az. Time Alt. Az. Time Alt. Az.
28 Oct -1.2 13:13:24 10° S 13:16:01 23° SE 13:18:40 10° E visible
29 Oct -0.7 11:22:21 10° SSE 11:23:48 12° SE 11:25:16 10° ESE visible
30 Oct -3.0 12:04:16 10° SW 12:07:26 52° SE 12:10:38 10° ENE visible
